EW9092 Weather Reports


Display with metric or nautical units.
time (UTC)temp
F
wind
direction
speed
MPH
gust
MPH
rain 1hr
in
rain 24hr
in
rain mn
in
humidity
%
barometer
mb
20260903092154 79 122 2.0 6.0 0.00 0.00 0.00 65 1016.0
20260903091912 79 122 3.0 7.0 0.00 0.00 0.00 65 1016.0
20260903091154 79 134 3.0 7.0 0.00 0.00 0.00 65 1016.0
20260903090654 79 128 2.0 7.0 0.00 0.00 0.00 64 1016.0
20260903090201 79 162 2.0 7.0 0.00 0.00 0.00 64 1016.0
20260903085654 79 155 2.0 5.0 0.00 0.00 0.00 64 1016.0
20260903085155 80 189 2.0 5.0 0.00 0.00 0.00 64 1016.0
20260903084920 80 150 2.0 5.0 0.00 0.00 0.00 64 1016.0
20260903084412 80 169 1.0 5.0 0.00 0.00 0.00 64 1016.0
20260903083656 80 210 1.0 5.0 0.00 0.00 0.00 64 1016.0
20260903083414 80 173 1.0 5.0 0.00 0.00 0.00 63 1016.0
20260903082914 80 167 2.0 5.0 0.00 0.00 0.00 63 1016.0
20260903082148 80 148 1.0 5.0 0.00 0.00 0.00 63 1016.1
20260903081647 80 185 1.0 5.0 0.00 0.00 0.00 63 1016.1
20260903081147 80 152 1.0 4.0 0.00 0.00 0.00 63 1016.1
20260903080645 80 125 1.0 4.0 0.00 0.00 0.00 62 1016.0
20260903080144 80 244 1.0 4.0 0.00 0.00 0.00 62 1016.0
20260903075902 80 227 1.0 4.0 0.00 0.00 0.00 62 1016.0
20260903075144 80 118 2.0 7.0 0.00 0.00 0.00 61 1016.0
20260903074644 81 151 2.0 7.0 0.00 0.00 0.00 61 1016.0
20260903074144 81 148 2.0 6.0 0.00 0.00 0.00 61 1016.0
20260903073647 81 173 2.0 7.0 0.00 0.00 0.00 61 1016.0
20260903073412 81 152 3.0 7.0 0.00 0.00 0.00 61 1016.0
20260903072644 81 186 3.0 6.0 0.00 0.00 0.00 61 1016.0
20260903072407 81 134 2.0 7.0 0.00 0.00 0.00 60 1016.1
20260903071640 81 168 3.0 7.0 0.00 0.00 0.00 61 1016.1
20260903071132 81 103 3.0 7.0 0.00 0.00 0.00 60 1016.1
20260903070850 81 148 3.0 6.0 0.00 0.00 0.00 60 1016.1
20260903070128 81 171 1.0 5.0 0.00 0.00 0.00 60 1016.0
20260903065628 81 133 1.0 3.0 0.00 0.00 0.00 60 1016.0
20260903065347 81 120 1.0 3.0 0.00 0.00 0.00 60 1015.9
20260903064624 81 133 1.0 3.0 0.00 0.00 0.00 60 1015.9
20260903064124 81 133 0.0 2.0 0.00 0.00 0.00 60 1015.8
20260903063628 81 136 0.0 1.0 0.00 0.00 0.00 60 1015.9
20260903063123 81 139 0.0 0.0 0.00 0.00 0.00 60 1016.0
20260903062620 81 200 0.0 0.0 0.00 0.00 0.00 60 1016.0
20260903062120 81 269 0.0 0.0 0.00 0.00 0.00 60 1016.0
20260903061843 82 269 0.0 2.0 0.00 0.00 0.00 60 1016.0
20260903061119 82 248 1.0 3.0 0.00 0.00 0.00 59 1016.1
20260903060618 82 131 1.0 3.0 0.00 0.00 0.00 59 1015.9
20260903060118 82 150 1.0 3.0 0.00 0.00 0.00 59 1015.9
20260903055615 82 215 0.0 2.0 0.00 0.00 0.00 58 1015.9
20260903055120 82 219 0.0 2.0 0.00 0.00 0.00 58 1016.0
20260903054610 82 221 1.0 3.0 0.00 0.00 0.00 57 1016.0
20260903054104 83 217 1.0 5.0 0.00 0.00 0.00 56 1016.0
20260903053819 83 152 2.0 6.0 0.00 0.00 0.00 56 1016.1
20260903053313 83 154 2.0 6.0 0.00 0.00 0.00 55 1016.1
20260903052819 83 245 2.0 7.0 0.00 0.00 0.00 54 1016.1
20260903052055 83 178 2.0 7.0 0.00 0.00 0.00 53 1016.1
20260903051554 84 200 3.0 9.0 0.00 0.00 0.00 52 1016.1
20260903051053 84 223 3.0 9.0 0.00 0.00 0.00 51 1016.2
20260903050554 84 231 2.0 4.0 0.00 0.00 0.00 50 1016.2
20260903050052 84 240 1.0 4.0 0.00 0.00 0.00 50 1016.1
20260903045550 84 211 0.0 3.0 0.00 0.00 0.00 50 1016.0
20260903045050 84 171 1.0 3.0 0.00 0.00 0.00 50 1016.0
20260903044802 84 217 1.0 4.0 0.00 0.00 0.00 50 1016.0
20260903044048 84 169 1.0 4.0 0.00 0.00 0.00 49 1016.0
20260903043542 84 163 1.0 4.0 0.00 0.00 0.00 50 1015.9
20260903043046 84 139 1.0 3.0 0.00 0.00 0.00 50 1015.9
20260903042546 84 221 0.0 1.0 0.00 0.00 0.00 50 1015.8
20260903042313 84 155 0.0 2.0 0.00 0.00 0.00 50 1015.8
20260903041547 84 236 1.0 3.0 0.00 0.00 0.00 50 1015.8
20260903041044 84 151 1.0 4.0 0.00 0.00 0.00 50 1015.8
20260903040542 84 163 1.0 4.0 0.00 0.00 0.00 50 1015.8
20260903040043 84 162 1.0 5.0 0.00 0.00 0.00 50 1015.8
20260903035542 85 155 2.0 5.0 0.00 0.00 0.00 49 1015.8
20260903035042 85 145 3.0 6.0 0.00 0.00 0.00 50 1015.8
20260903034543 85 167 3.0 6.0 0.00 0.00 0.00 49 1015.7
20260903034041 85 143 2.0 5.0 0.00 0.00 0.00 48 1015.7
20260903033804 85 191 3.0 6.0 0.00 0.00 0.00 48 1015.7
20260903033043 85 155 2.0 6.0 0.00 0.00 0.00 48 1015.7
20260903032542 85 173 1.0 5.0 0.00 0.00 0.00 47 1015.5
20260903032043 85 170 0.0 2.0 0.00 0.00 0.00 47 1015.4
20260903031537 85 145 0.0 2.0 0.00 0.00 0.00 47 1015.4
20260903031037 85 142 0.0 1.0 0.00 0.00 0.00 47 1015.3
20260903030537 85 142 0.0 1.0 0.00 0.00 0.00 47 1015.2
20260903030038 85 140 1.0 5.0 0.00 0.00 0.00 47 1015.1
20260903025538 85 194 1.0 5.0 0.00 0.00 0.00 47 1015.1
20260903025038 85 143 0.0 3.0 0.00 0.00 0.00 47 1015.0
20260903024536 85 153 0.0 0.0 0.00 0.00 0.00 47 1015.0
20260903024035 85 160 0.0 0.0 0.00 0.00 0.00 47 1015.0
20260903023536 85 150 0.0 0.0 0.00 0.00 0.00 46 1014.9
20260903023033 85 139 0.0 0.0 0.00 0.00 0.00 46 1014.9
20260903022538 85 139 0.0 0.0 0.00 0.00 0.00 46 1014.9
20260903022031 86 139 0.0 1.0 0.00 0.00 0.00 45 1014.8
20260903021523 86 139 0.0 1.0 0.00 0.00 0.00 45 1014.7
20260903021012 86 127 0.0 1.0 0.00 0.00 0.00 45 1014.6
20260903020731 86 163 1.0 3.0 0.00 0.00 0.00 45 1014.7
20260903020441 86 221 2.0 4.0 0.00 0.00 0.00 45 1014.6
20260903015449 86 219 2.0 5.0 0.00 0.00 0.00 45 1014.8
20260903014941 87 220 2.0 5.0 0.00 0.00 0.00 45 1014.9
20260903014436 87 229 2.0 6.0 0.00 0.00 0.00 46 1014.7
20260903013926 87 205 2.0 6.0 0.00 0.00 0.00 46 1014.8
20260903013419 87 215 2.0 5.0 0.00 0.00 0.00 45 1014.6
20260903012914 87 150 3.0 7.0 0.00 0.00 0.00 45 1014.6
20260903012410 87 212 4.0 7.0 0.00 0.00 0.00 45 1014.6
20260903011905 88 207 4.0 8.0 0.00 0.00 0.00 44 1014.5
20260903011406 88 219 3.0 8.0 0.00 0.00 0.00 44 1014.5
20260903010905 89 230 4.0 8.0 0.00 0.00 0.00 43 1014.5
20260903010405 89 230 4.0 8.0 0.00 0.00 0.00 42 1014.4
20260903005907 89 212 4.0 8.0 0.00 0.00 0.00 42 1014.4
20260903005630 89 231 5.0 8.0 0.00 0.00 0.00 42 1014.5
20260903004903 90 233 5.0 9.0 0.00 0.00 0.00 41 1014.5
20260903004404 91 231 5.0 11.0 0.00 0.00 0.00 40 1014.4
20260903003904 92 240 4.0 11.0 0.00 0.00 0.00 40 1014.4
20260903003404 92 214 4.0 9.0 0.00 0.00 0.00 39 1014.5
20260903002903 92 226 5.0 9.0 0.00 0.00 0.00 39 1014.5
20260903002637 92 205 4.0 8.0 0.00 0.00 0.00 39 1014.5
20260903002132 92 238 3.0 8.0 0.00 0.00 0.00 39 1014.5
20260903001401 92 209 4.0 8.0 0.00 0.00 0.00 39 1014.5
20260903000851 92 205 3.0 8.0 0.00 0.00 0.00 39 1014.5
20260903000341 91 244 4.0 9.0 0.00 0.00 0.00 41 1014.5
20260902235837 91 210 4.0 9.0 0.00 0.00 0.00 41 1014.5
20260902235327 92 243 4.0 9.0 0.00 0.00 0.00 39 1014.5
20260902234821 92 217 4.0 9.0 0.00 0.00 0.00 38 1014.5
20260902234316 93 122 4.0 9.0 0.00 0.00 0.00 38 1014.5
20260902233805 94 226 4.0 8.0 0.00 0.00 0.00 37 1014.5
20260902233258 94 170 4.0 8.0 0.00 0.00 0.00 38 1014.5
20260902232754 93 155 4.0 8.0 0.00 0.00 0.00 39 1014.6
20260902232503 93 208 4.0 8.0 0.00 0.00 0.00 39 1014.6
20260902231737 93 247 4.0 9.0 0.00 0.00 0.00 39 1014.7
20260902231231 93 169 5.0 9.0 0.00 0.00 0.00 39 1014.7
20260902230721 93 205 5.0 10.0 0.00 0.00 0.00 40 1014.8
20260902230434 92 203 5.0 10.0 0.00 0.00 0.00 40 1014.9
20260902225937 93 254 4.0 8.0 0.00 0.00 0.00 40 1014.9
20260902225157 93 219 4.0 8.0 0.00 0.00 0.00 40 1015.0
20260902224651 92 141 5.0 9.0 0.00 0.00 0.00 40 1015.1
20260902224148 92 215 5.0 11.0 0.00 0.00 0.00 41 1015.0
20260902223636 91 207 4.0 11.0 0.00 0.00 0.00 42 1015.1
20260902223130 91 217 5.0 10.0 0.00 0.00 0.00 42 1015.0
20260902222626 91 195 6.0 11.0 0.00 0.00 0.00 41 1015.2
20260902222115 91 219 5.0 11.0 0.00 0.00 0.00 41 1015.2
20260902221609 89 203 4.0 11.0 0.00 0.00 0.00 43 1015.2
20260902221103 88 217 5.0 9.0 0.00 0.00 0.00 44 1015.2
20260902220554 88 233 4.0 8.0 0.00 0.00 0.00 44 1015.4
20260902220304 88 211 3.0 7.0 0.00 0.00 0.00 46 1015.4
20260902215541 89 233 4.0 12.0 0.00 0.00 0.00 46 1015.4
20260902215030 90 222 5.0 12.0 0.00 0.00 0.00 44 1015.5
20260902214525 90 268 4.0 7.0 0.00 0.00 0.00 42 1015.5
20260902214019 90 240 3.0 7.0 0.00 0.00 0.00 42 1015.5
20260902213507 91 186 4.0 11.0 0.00 0.00 0.00 39 1015.4
20260902213003 91 269 5.0 11.0 0.00 0.00 0.00 39 1015.3
20260902212457 91 242 4.0 10.0 0.00 0.00 0.00 39 1015.3
20260902211948 91 293 4.0 11.0 0.00 0.00 0.00 38 1015.4
20260902211439 91 279 5.0 11.0 0.00 0.00 0.00 39 1015.5
20260902210936 91 288 6.0 14.0 0.00 0.00 0.00 39 1015.7
20260902210425 92 228 6.0 14.0 0.00 0.00 0.00 39 1015.8
20260902205920 92 262 4.0 10.0 0.00 0.00 0.00 38 1015.7
20260902205640 92 238 5.0 11.0 0.00 0.00 0.00 39 1015.7
20260902204903 92 248 5.0 11.0 0.00 0.00 0.00 37 1015.7
20260902204358 92 205 3.0 8.0 0.00 0.00 0.00 38 1015.8
20260902203851 92 243 4.0 11.0 0.00 0.00 0.00 38 1015.7
20260902203340 92 248 3.0 11.0 0.00 0.00 0.00 39 1015.9
20260902202833 93 286 2.0 8.0 0.00 0.00 0.00 38 1015.9
20260902202329 93 273 4.0 9.0 0.00 0.00 0.00 37 1015.9
20260902201819 94 266 5.0 9.0 0.00 0.00 0.00 36 1015.9
20260902201313 94 285 4.0 10.0 0.00 0.00 0.00 37 1015.9
20260902200807 94 271 4.0 11.0 0.00 0.00 0.00 37 1016.0
20260902200255 95 309 4.0 12.0 0.00 0.00 0.00 36 1016.1
20260902200013 95 314 4.0 12.0 0.00 0.00 0.00 36 1016.1
20260902195508 95 285 3.0 9.0 0.00 0.00 0.00 37 1016.2
20260902194732 95 319 3.0 18.0 0.00 0.00 0.00 36 1016.3
20260902194227 95 273 3.0 18.0 0.00 0.00 0.00 37 1016.5
20260902193720 95 293 3.0 7.0 0.00 0.00 0.00 37 1016.5
20260902193704 95 266 3.0 7.0 0.00 0.00 0.00 37 1016.6
20260902193155 94 297 3.0 6.0 0.00 0.00 0.00 38 1016.6
20260902192158 94 319 4.0 9.0 0.00 0.00 0.00 38 1016.7
20260902191646 94 274 4.0 9.0 0.00 0.00 0.00 39 1016.7
20260902191142 95 227 3.0 7.0 0.00 0.00 0.00 39 1017.0
20260902190641 94 275 3.0 7.0 0.00 0.00 0.00 39 1017.1
20260902190138 94 288 3.0 7.0 0.00 0.00 0.00 39 1017.2
20260902185637 94 274 2.0 8.0 0.00 0.00 0.00 40 1017.3
20260902185136 93 314 3.0 8.0 0.00 0.00 0.00 40 1017.3
20260902184633 93 221 3.0 9.0 0.00 0.00 0.00 40 1017.4
20260902184132 93 222 3.0 9.0 0.00 0.00 0.00 41 1017.4
20260902184116 93 253 3.0 7.0 0.00 0.00 0.00 42 1017.5
20260902183354 93 268 2.0 7.0 0.00 0.00 0.00 41 1017.6
20260902182850 93 296 2.0 6.0 0.00 0.00 0.00 41 1017.6
20260902182131 92 287 3.0 6.0 0.00 0.00 0.00 42 1017.6
20260902181630 92 308 3.0 7.0 0.00 0.00 0.00 42 1017.7
20260902181129 92 213 2.0 7.0 0.00 0.00 0.00 42 1017.8
20260902180628 92 231 2.0 6.0 0.00 0.00 0.00 43 1017.9
20260902180127 92 243 4.0 8.0 0.00 0.00 0.00 44 1017.9
20260902175627 92 239 3.0 8.0 0.00 0.00 0.00 44 1018.0
20260902175345 91 248 2.0 6.0 0.00 0.00 0.00 45 1017.9
20260902174851 91 329 2.0 6.0 0.00 0.00 0.00 44 1018.0
20260902174119 91 316 1.0 5.0 0.00 0.00 0.00 43 1017.9
20260902173848 91 47 1.0 5.0 0.00 0.00 0.00 45 1018.0
20260902173120 91 266 1.0 5.0 0.00 0.00 0.00 45 1018.0
20260902172832 91 252 1.0 5.0 0.00 0.00 0.00 44 1018.1
20260902172116 92 271 1.0 4.0 0.00 0.00 0.00 43 1018.1
20260902171615 92 146 1.0 3.0 0.00 0.00 0.00 45 1018.1
20260902171113 91 146 1.0 4.0 0.00 0.00 0.00 45 1018.1
20260902170613 91 193 1.0 4.0 0.00 0.00 0.00 45 1018.2
20260902170112 92 236 1.0 3.0 0.00 0.00 0.00 45 1018.2
20260902165613 91 214 0.0 2.0 0.00 0.00 0.00 45 1018.2
20260902165112 91 352 1.0 4.0 0.00 0.00 0.00 45 1018.2
20260902164607 91 143 1.0 5.0 0.00 0.00 0.00 45 1018.2
20260902164106 90 215 0.0 5.0 0.00 0.00 0.00 46 1018.2
20260902163841 90 277 0.0 4.0 0.00 0.00 0.00 46 1018.4
20260902163108 90 161 0.0 2.0 0.00 0.00 0.00 46 1018.4
20260902162607 90 153 0.0 2.0 0.00 0.00 0.00 47 1018.2
20260902162109 89 111 1.0 4.0 0.00 0.00 0.00 47 1018.4
20260902161607 89 215 1.0 4.0 0.00 0.00 0.00 47 1018.4
20260902161109 89 134 1.0 4.0 0.00 0.00 0.00 48 1018.2
20260902160602 89 255 1.0 4.0 0.00 0.00 0.00 48 1018.2
20260902160103 89 151 1.0 4.0 0.00 0.00 0.00 49 1018.2
20260902155829 88 136 1.0 4.0 0.00 0.00 0.00 49 1018.2
20260902155102 87 222 0.0 4.0 0.00 0.00 0.00 50 1018.2
20260902154603 87 129 1.0 4.0 0.00 0.00 0.00 50 1018.2
20260902154103 87 244 1.0 4.0 0.00 0.00 0.00 50 1018.2
20260902153603 87 234 1.0 3.0 0.00 0.00 0.00 50 1018.2
20260902153104 87 91 0.0 2.0 0.00 0.00 0.00 50 1018.4
20260902152603 87 223 0.0 1.0 0.00 0.00 0.00 49 1018.4
20260902152104 87 184 0.0 2.0 0.00 0.00 0.00 49 1018.4
20260902151602 87 145 0.0 4.0 0.00 0.00 0.00 50 1018.4
20260902151102 86 136 1.0 4.0 0.00 0.00 0.00 51 1018.4
20260902150602 86 233 0.0 3.0 0.00 0.00 0.00 51 1018.4
20260902150328 86 131 0.0 0.0 0.00 0.00 0.00 51 1018.2
20260902145603 86 131 0.0 0.0 0.00 0.00 0.00 52 1018.2
20260902145102 86 131 0.0 0.0 0.00 0.00 0.00 53 1018.1
20260902144604 85 131 0.0 0.0 0.00 0.00 0.00 56 1018.1
20260902144053 83 131 0.0 0.0 0.00 0.00 0.00 58 1018.1
20260902143549 83 216 0.0 0.0 0.00 0.00 0.00 60 1018.1
20260902143043 82 216 0.0 0.0 0.00 0.00 0.00 60 1018.1
20260902142532 82 171 0.0 0.0 0.00 0.00 0.00 61 1018.1
20260902142026 81 56 0.0 0.0 0.00 0.00 0.00 61 1018.1
20260902141743 80 56 0.0 0.0 0.00 0.00 0.00 62 1018.1
20260902141010 80 70 0.0 0.0 0.00 0.00 0.00 64 1018.0
20260902140728 80 70 0.0 0.0 0.00 0.00 0.00 63 1018.0
20260902135958 81 70 0.0 0.0 0.00 0.00 0.00 61 1017.9
20260902135447 81 70 0.0 0.0 0.00 0.00 0.00 62 1017.9
20260902135042 80 70 0.0 0.0 0.00 0.00 0.00 63 1017.8
20260902133926 78 70 0.0 0.0 0.00 0.00 0.00 66 1017.7
20260902133642 78 70 0.0 0.0 0.00 0.00 0.00 66 1017.7
20260902133137 77 70 0.0 0.0 0.00 0.00 0.00 69 1017.6
20260902132404 76 70 0.0 0.0 0.00 0.00 0.00 70 1017.5
20260902131857 76 70 0.0 0.0 0.00 0.00 0.00 71 1017.5
20260902131351 75 70 0.0 0.0 0.00 0.00 0.00 72 1017.4
20260902131105 75 67 0.0 0.0 0.00 0.00 0.00 73 1017.4
20260902130336 75 67 0.0 0.0 0.00 0.00 0.00 73 1017.4
20260902125830 74 67 0.0 0.0 0.00 0.00 0.00 73 1017.3
20260902125319 74 67 0.0 0.0 0.00 0.00 0.00 73 1017.4
20260902124814 74 67 0.0 0.0 0.00 0.00 0.00 74 1017.4
20260902124308 74 67 0.0 0.0 0.00 0.00 0.00 73 1017.4
20260902123757 74 67 0.0 0.0 0.00 0.00 0.00 73 1017.3
20260902123252 74 67 0.0 0.0 0.00 0.00 0.00 73 1017.2
20260902122746 74 29 0.0 0.0 0.00 0.00 0.00 73 1017.2
20260902122236 75 29 0.0 0.0 0.00 0.00 0.00 73 1017.2
20260902121730 75 29 0.0 0.0 0.00 0.00 0.00 73 1017.2
20260902121224 75 138 0.0 0.0 0.00 0.00 0.00 73 1017.1
20260902120713 75 139 0.0 0.0 0.00 0.00 0.00 73 1017.2
20260902120208 75 145 0.0 0.0 0.00 0.00 0.00 72 1017.2
20260902115702 75 145 0.0 0.0 0.00 0.00 0.00 72 1017.1
20260902115414 75 145 0.0 0.0 0.00 0.00 0.00 71 1017.1
20260902114646 75 145 0.0 0.0 0.00 0.00 0.00 71 1017.2
20260902114140 75 145 0.0 0.0 0.00 0.00 0.00 72 1017.1
20260902113630 75 145 0.0 0.0 0.00 0.00 0.00 72 1017.1
20260902113347 75 145 0.0 0.0 0.00 0.00 0.00 73 1017.1
20260902112618 75 145 0.0 0.0 0.00 0.00 0.00 73 1017.1
20260902112107 75 145 0.0 0.0 0.00 0.00 0.00 73 1017.1
20260902111602 75 145 0.0 0.0 0.00 0.00 0.00 72 1017.1
20260902111056 75 145 0.0 0.0 0.00 0.00 0.00 71 1017.2
20260902110546 75 145 0.0 0.0 0.00 0.00 0.00 70 1017.1
20260902110040 75 145 0.0 0.0 0.00 0.00 0.00 70 1017.1
20260902105759 76 145 0.0 0.0 0.00 0.00 0.00 70 1017.1
20260902105022 76 145 0.0 0.0 0.00 0.00 0.00 70 1017.1
20260902104522 76 115 0.0 0.0 0.00 0.00 0.00 70 1017.2
20260902104007 76 115 0.0 0.0 0.00 0.00 0.00 70 1017.2
20260902103718 76 115 0.0 0.0 0.00 0.00 0.00 70 1017.2
20260902102952 76 115 0.0 0.0 0.00 0.00 0.00 70 1017.2
20260902102446 76 115 0.0 0.0 0.00 0.00 0.00 70 1017.2
20260902101936 76 115 0.0 0.0 0.00 0.00 0.00 70 1017.3
20260902101430 76 115 0.0 0.0 0.00 0.00 0.00 70 1017.3
20260902100923 76 229 0.0 0.0 0.00 0.00 0.00 70 1017.3
20260902100643 76 229 0.0 0.0 0.00 0.00 0.00 70 1017.3
20260902095907 76 229 0.0 0.0 0.00 0.00 0.00 70 1017.2
20260902095402 76 229 0.0 0.0 0.00 0.00 0.00 70 1017.2
20260902094851 76 229 0.0 0.0 0.00 0.00 0.00 70 1017.3
20260902094346 76 229 0.0 0.0 0.00 0.00 0.00 69 1017.3
20260902093839 76 229 0.0 0.0 0.00 0.00 0.00 69 1017.3
20260902093329 77 229 0.0 2.0 0.00 0.00 0.00 68 1017.2
20260902092823 77 229 0.0 2.0 0.00 0.00 0.00 68 1017.1
20260902092545 77 215 0.0 3.0 0.00 0.00 0.00 68 1017.1